Location: Sabalos
(43.2860°N, 0.1414°E)
Time: 03:57:39
(UTC+00:00)

ATLAS CENTAUR R/B - Pass Details

Date: 05 July 2020
Orbit: 475 x 672 km, 64.7° (Epoch: 13 July)

Event Time Altitude Azimuth Distance (km) Brightness Sun altitude
Rises 21:51:41 0° 327° (NNW) 2,563 6.5 -17.3°
Reaches altitude 10° 21:53:52 10° 331° (NNW) 1,664 5.1 -17.6°
Maximum altitude 21:57:31 67° 54° (NE) 519 1.1 -17.9°
Enters shadow 21:58:26 46° 118° (ESE) 650 1.3 -18.0°
